Вернуться в каталог

CZ-6A DEB

АктивенPO
NORAD 61804·DEBRIS·🇨🇳 China

Запущен Aug 6, 2024 с Taiyuan Satellite Launch Center

Loading…

Ближайшие Пролёты (ближайшие 24 часа)

TLE

СвежийSource: Space-Track

Эпоха: Sep 14, 2026, 07:02 UTC

1 61804U 24140ABU 26257.29323204  .00005386  00000-0  20609-2 0  9998
2 61804  89.0835 272.2840 0065498 238.9515 120.5240 14.29367954104340

Отслеживайте CZ-6A DEB в реальном времени с AllMySat

Download on the App Store